Eelde, Netherlands

7:00 AM CEST on April 27, 2018 (GMT +0200)
Eelde

Weather History for EHGG - November, 2013

Change the Weather History Date:

Monday, November 11, 2013

  Actual Average Record
Temperature  
Mean Temperature 40 °F -  
Max Temperature 50 °F 45 °F 57 °F (2005)
Min Temperature 30 °F 35 °F 26 °F (2016)
Degree Days  
Heating Degree Days 25    
Moisture  
Dew Point 38 °F    
Average Humidity 87    
Maximum Humidity 100    
Minimum Humidity 69    
Precipitation  
Precipitation 0.00 in 0.10 in - ()
Sea Level Pressure  
Sea Level Pressure 30.29 in    
Wind  
Wind Speed 6 mph ()    
Max Wind Speed 15 mph    
Max Gust Speed -    
Visibility 6.5 miles    
Events Fog    
Averages and records for this station are not official NWS values.
T = Trace of Precipitation, MM = Missing Value Source: Averaged Metar Reports

Daily Weather History Graph

Daily Weather History Graph

Search for Another Location

Airport or City:

Astronomy

Nov. 11, 2013 Rise Set
Actual Time 7:50 AM CET 4:44 PM CET
Civil Twilight 7:12 AM CET 5:22 PM CET
Nautical Twilight 6:30 AM CET 6:04 PM CET
Astronomical Twilight 5:49 AM CET 6:44 PM CET
Moon 2:02 PM CET (11/11) 12:26 AM CET (11/11)
Length of Visible Light 10h 09m
Length of Day
8h 53m
Waxing Gibbous, 63% of the Moon is Illuminated
Nov 11
Waxing Gibbous
Nov 17
Full
Nov 25
Last Quarter
Dec 3
New
Dec 9
First Quarter

Hourly Weather History & Observations

Time (CET) Temp. Windchill Dew Point Humidity Pressure Visibility Wind Dir Wind Speed Gust Speed Precip Events Conditions
12:25 AM 37.4 °F 32.1 °F 35.6 °F 93% 30.15 in 6.2 mi WSW 6.9 mph - N/A   Unknown
12:55 AM 35.6 °F 30.7 °F 33.8 °F 93% 30.18 in 6.2 mi West 5.8 mph - N/A   Unknown
1:00 AM 36 °F - 35 °F 93% 30.20 in 9 mi West 4.5 mph - -   Partly Cloudy
1:25 AM 35.6 °F 31.7 °F 33.8 °F 93% 30.18 in 6.2 mi West 4.6 mph - N/A   Unknown
1:55 AM 35.6 °F 31.7 °F 33.8 °F 93% 30.21 in 6.2 mi West 4.6 mph - N/A   Scattered Clouds
2:25 AM 35.6 °F 32.8 °F 35.6 °F 100% 30.21 in 6.2 mi NW 3.5 mph - N/A   Unknown
2:55 AM 37.4 °F - 33.8 °F 87% 30.21 in 6.2 mi Variable 2.3 mph - N/A   Mostly Cloudy
3:25 AM 33.8 °F 30.8 °F 32.0 °F 93% 30.24 in 6.2 mi WSW 3.5 mph - N/A   Scattered Clouds
3:55 AM 33.8 °F - 33.8 °F 100% 30.24 in 6.2 mi Variable 2.3 mph - N/A   Unknown
4:00 AM 33 °F - 32 °F 92% 30.26 in 7 mi 2.2 mph - -  
4:25 AM 32.0 °F - 32.0 °F 100% 30.24 in 0.7 mi SE 1.2 mph - N/A   Mist
4:55 AM 32.0 °F 26.4 °F 32.0 °F 100% 30.24 in 6.2 mi SW 5.8 mph - N/A   Overcast
5:25 AM 33.8 °F 30.8 °F 32.0 °F 93% 30.27 in 6.2 mi SW 3.5 mph - N/A   Mostly Cloudy
5:55 AM 32.0 °F - 32.0 °F 100% 30.27 in 1.4 mi South 2.3 mph - N/A   Mist
6:25 AM 30.2 °F 25.4 °F 30.2 °F 100% 30.27 in 6.2 mi SW 4.6 mph - N/A   Unknown
6:55 AM 32.0 °F 27.5 °F 32.0 °F 100% 30.27 in 5.6 mi SSW 4.6 mph - N/A   Unknown
7:00 AM 32 °F - 31 °F 96% 30.30 in 6 mi South 4.5 mph - - Fog Fog
7:25 AM 32.0 °F - 30.2 °F 93% 30.27 in 0.6 mi South 2.3 mph - N/A   Mist
7:55 AM 32.0 °F - 32.0 °F 100% 30.30 in 0.6 mi South 2.3 mph - N/A Fog Light Freezing Fog
8:25 AM 32.0 °F 28.7 °F 32.0 °F 100% 30.30 in 4.3 mi South 3.5 mph - N/A   Partly Cloudy
8:55 AM 35.6 °F 32.8 °F 35.6 °F 100% 30.33 in 6.2 mi South 3.5 mph - N/A   Unknown
9:25 AM 37.4 °F - 37.4 °F 100% 30.33 in 6.2 mi Variable 2.3 mph - N/A   Unknown
9:55 AM 41.0 °F 37.1 °F 39.2 °F 93% 30.33 in 6.2 mi SSW 5.8 mph - N/A   Unknown
10:00 AM 42 °F - 40 °F 88% 30.35 in 13 mi South 6.7 mph - -   Partly Cloudy
10:25 AM 42.8 °F 38.6 °F 39.2 °F 87% 30.33 in 6.2 mi SSW 6.9 mph - N/A   Scattered Clouds
10:55 AM 46.4 °F 42.9 °F 41.0 °F 81% 30.33 in 6.2 mi SSW 6.9 mph - N/A   Unknown
11:25 AM 48.2 °F - 42.8 °F 82% 30.33 in 6.2 mi SSW 9.2 mph - N/A   Unknown
11:55 AM 48.2 °F - 42.8 °F 82% 30.33 in 6.2 mi SSW 9.2 mph - N/A   Unknown
12:25 PM 48.2 °F - 42.8 °F 82% 30.33 in 6.2 mi SSW 8.1 mph - N/A   Unknown
12:55 PM 48.2 °F - 42.8 °F 82% 30.33 in 6.2 mi South 9.2 mph - N/A   Unknown
1:00 PM 49 °F - 42 °F 69% 30.34 in 18 mi SSW 11.2 mph - -   Partly Cloudy
1:25 PM 50.0 °F - 42.8 °F 76% 30.33 in 6.2 mi SSW 10.4 mph - N/A   Unknown
1:55 PM 50.0 °F - 42.8 °F 76% 30.33 in 6.2 mi SSW 11.5 mph - N/A   Unknown
2:25 PM 48.2 °F - 42.8 °F 82% 30.33 in 6.2 mi SSW 10.4 mph - N/A   Unknown
2:55 PM 48.2 °F - 42.8 °F 82% 30.33 in 6.2 mi SSW 11.5 mph - N/A   Unknown
3:25 PM 48.2 °F - 42.8 °F 82% 30.33 in 6.2 mi SSW 10.4 mph - N/A   Unknown
3:55 PM 48.2 °F - 42.8 °F 82% 30.30 in 6.2 mi South 9.2 mph - N/A   Unknown
4:00 PM 48 °F - 42 °F 74% 30.33 in 18 mi South 8.9 mph - -   Overcast
4:25 PM 48.2 °F - 42.8 °F 82% 30.30 in 6.2 mi South 11.5 mph - N/A   Unknown
4:55 PM 46.4 °F 41.1 °F 42.8 °F 87% 30.30 in 6.2 mi South 11.5 mph - N/A   Unknown
5:25 PM 46.4 °F 41.5 °F 42.8 °F 87% 30.30 in 6.2 mi South 10.4 mph - N/A   Unknown
5:55 PM 46.4 °F 41.1 °F 42.8 °F 87% 30.30 in 6.2 mi South 11.5 mph - N/A   Unknown
6:25 PM 46.4 °F 40.7 °F 41.0 °F 81% 30.30 in 6.2 mi South 12.7 mph - N/A   Unknown
6:55 PM 46.4 °F 40.7 °F 41.0 °F 81% 30.30 in 6.2 mi South 12.7 mph - N/A   Scattered Clouds
7:00 PM 46 °F - 41 °F 78% 30.32 in 9 mi South 13.4 mph - -   Partly Cloudy
7:25 PM 46.4 °F 40.4 °F 41.0 °F 81% 30.30 in 6.2 mi South 13.8 mph - N/A   Partly Cloudy
7:55 PM 46.4 °F 40.4 °F 41.0 °F 81% 30.30 in 6.2 mi South 13.8 mph - N/A   Partly Cloudy
8:25 PM 46.4 °F 40.1 °F 41.0 °F 81% 30.30 in 6.2 mi South 15.0 mph - N/A   Unknown
8:55 PM 46.4 °F 40.1 °F 41.0 °F 81% 30.30 in 6.2 mi South 15.0 mph - N/A   Unknown
9:25 PM 46.4 °F 40.4 °F 41.0 °F 81% 30.27 in 6.2 mi South 13.8 mph - N/A   Unknown
9:55 PM 46.4 °F 40.4 °F 41.0 °F 81% 30.27 in 6.2 mi South 13.8 mph - N/A   Unknown
10:00 PM 47 °F - 41 °F 71% 30.30 in 12 mi South 13.4 mph - -   Overcast
10:25 PM 46.4 °F 40.1 °F 41.0 °F 81% 30.27 in 6.2 mi South 15.0 mph - N/A   Unknown
10:55 PM 46.4 °F 40.1 °F 41.0 °F 81% 30.27 in 6.2 mi South 15.0 mph - N/A   Mostly Cloudy
11:25 PM 46.4 °F 40.1 °F 39.2 °F 76% 30.27 in 6.2 mi South 15.0 mph - N/A   Overcast
11:55 PM 46.4 °F 40.1 °F 39.2 °F 76% 30.27 in 6.2 mi South 15.0 mph - N/A   Overcast